Simultaneous Nadir Overpasses (SNOs) Predictions

Prediction of SNOs between METOP-B and NPP Satellite Orbit:

Table of predicted SNOs for the next 14.0 days since TLE Epoch: 7/13/2015
Index Date (METOP-B) Time (METOP-B) Lat,Lon (METOP-B) SZA (METOP-B ) Date (NPP) Time (NPP) Lat,Lon (NPP) SZA (NPP ) Distance(km) Time Diff (sec)
1 07/23/2015 09:30:07 73.58, 31.54 53.56 07/23/2015 09:29:00 73.60, 28.88 53.73 83.55 67
2 07/23/2015 10:20:51 -73.49,-161.36 126.52 07/23/2015 10:19:42 -73.48,-163.53 126.40 68.86 69
3 07/23/2015 11:11:35 73.26, 5.47 53.29 07/23/2015 11:10:23 73.26, 4.28 53.37 38.14 72
4 07/23/2015 12:02:19 -73.17, 172.59 126.79 07/23/2015 12:01:06 -73.19, 171.74 126.71 27.31 73
5 07/23/2015 12:53:02 72.99, -20.47 53.06 07/23/2015 12:51:47 72.96, -20.46 53.06 2.27 75
6 07/23/2015 13:43:44 -72.99, 146.88 126.93 07/23/2015 13:42:32 -73.00, 146.79 126.90 2.96 72
7 07/23/2015 14:34:24 72.96, -45.85 53.05 07/23/2015 14:33:17 72.97, -45.85 53.08 1.10 67
8 07/23/2015 15:25:06 -72.97, 121.49 126.93 07/23/2015 15:24:01 -72.96, 121.50 126.94 1.77 65
9 07/23/2015 16:15:46 72.94, -71.24 53.05 07/23/2015 16:14:46 72.93, -71.13 53.05 3.61 60
10 07/23/2015 17:06:28 -72.95, 96.10 126.94 07/23/2015 17:05:31 -72.96, 96.11 126.91 1.61 57
11 07/23/2015 17:57:07 72.97, -96.52 53.09 07/23/2015 17:56:16 72.94, -96.53 53.07 3.46 51
12 07/23/2015 18:47:49 -72.98, 70.82 126.90 07/23/2015 18:47:01 -72.97, 70.72 126.89 3.52 48
13 07/23/2015 19:38:29 72.95,-121.90 53.08 07/23/2015 19:37:46 72.95,-121.92 53.09 0.45 43
14 07/23/2015 20:29:11 -72.96, 45.44 126.90 07/23/2015 20:28:30 -72.93, 45.43 126.92 2.98 41
15 07/23/2015 21:19:51 72.93,-147.29 53.08 07/23/2015 21:19:16 72.96,-147.31 53.12 3.33 35
16 07/23/2015 22:10:33 -72.93, 20.05 126.91 07/23/2015 22:10:00 -72.94, 20.04 126.90 0.48 33
17 07/23/2015 23:01:13 72.90,-172.68 53.08 07/23/2015 23:00:45 72.91,-172.59 53.09 2.89 28
18 07/23/2015 23:51:55 -72.91, -5.33 126.91 07/23/2015 23:51:29 -72.90, -5.24 126.93 3.55 26
19 07/24/2015 00:42:34 72.93, 162.04 53.11 07/24/2015 00:42:15 72.92, 162.01 53.11 1.60 19
20 07/24/2015 01:33:17 -72.89, -30.72 126.92 07/24/2015 01:32:59 -72.90, -30.63 126.91 3.12 18
21 07/24/2015 02:23:56 72.91, 136.66 53.11 07/24/2015 02:23:45 72.93, 136.62 53.13 2.38 11
22 07/24/2015 03:14:38 -72.92, -56.00 126.88 07/24/2015 03:14:29 -72.91, -56.03 126.88 1.25 9
23 07/24/2015 04:05:18 72.89, 111.27 53.11 07/24/2015 04:05:14 72.89, 111.34 53.10 2.18 4
24 07/24/2015 04:56:00 -72.90, -81.38 126.88 07/24/2015 04:55:59 -72.92, -81.42 126.86 2.65 1
25 07/24/2015 05:46:39 72.92, 85.99 53.15 07/24/2015 05:46:44 72.89, 85.95 53.12 2.87 5
26 07/24/2015 06:37:22 -72.88,-106.77 126.89 07/24/2015 06:37:28 -72.88,-106.70 126.89 2.23 6
27 07/24/2015 07:28:01 72.89, 60.61 53.14 07/24/2015 07:28:14 72.90, 60.55 53.15 1.91 13
28 07/24/2015 08:18:43 -72.90,-132.05 126.85 07/24/2015 08:18:58 -72.89,-132.09 126.87 2.57 15
29 07/24/2015 09:09:22 72.87, 35.22 53.14 07/24/2015 09:09:42 72.86, 35.27 53.12 2.11 20
30 07/24/2015 10:00:04 -72.88,-157.44 126.85 07/24/2015 10:00:27 -72.89,-157.49 126.84 2.02 23
31 07/24/2015 10:50:44 72.85, 9.83 53.13 07/24/2015 10:51:12 72.87, 9.88 53.14 2.48 28
32 07/24/2015 11:41:26 -72.86, 177.18 126.86 07/24/2015 11:41:56 -72.85, 177.23 126.88 1.98 30
33 07/24/2015 12:32:05 72.88, -15.45 53.17 07/24/2015 12:32:42 72.88, -15.51 53.16 2.24 37
34 07/24/2015 13:22:48 -72.84, 151.79 126.86 07/24/2015 13:23:26 -72.86, 151.84 126.85 2.69 38
35 07/24/2015 14:13:27 72.86, -40.83 53.17 07/24/2015 14:14:11 72.83, -40.80 53.13 2.74 44
36 07/24/2015 15:04:09 -72.87, 126.51 126.82 07/24/2015 15:04:56 -72.87, 126.45 126.83 2.20 47
37 07/24/2015 15:54:49 72.84, -66.22 53.16 07/24/2015 15:55:41 72.84, -66.19 53.16 1.24 52
38 07/24/2015 16:45:31 -72.85, 101.13 126.83 07/24/2015 16:46:25 -72.82, 101.16 126.86 2.55 54
39 07/24/2015 17:36:10 72.86, -91.50 53.20 07/24/2015 17:37:11 72.85, -91.58 53.18 3.12 61
40 07/24/2015 18:26:53 -72.82, 75.74 126.83 07/24/2015 18:27:55 -72.83, 75.77 126.84 1.36 62
41 07/24/2015 19:17:32 72.84,-116.88 53.20 07/24/2015 19:18:41 72.86,-116.98 53.20 3.55 69
42 07/24/2015 20:08:14 -72.85, 50.46 126.79 07/24/2015 20:09:25 -72.84, 50.38 126.81 3.04 71
43 07/24/2015 20:58:56 72.72,-142.48 53.10 07/24/2015 21:00:09 72.77,-142.16 53.12 12.03 73
44 07/24/2015 21:49:39 -72.68, 24.76 126.93 07/24/2015 21:50:52 -72.70, 25.30 126.95 17.94 73
45 07/24/2015 22:40:23 72.44,-168.38 52.88 07/24/2015 22:41:33 72.47,-166.93 52.81 48.95 70
46 07/24/2015 23:31:07 -72.35, -1.23 127.20 07/24/2015 23:32:16 -72.40, 0.52 127.26 59.45 69
47 07/25/2015 00:21:51 72.11, 165.63 52.61 07/25/2015 00:22:57 72.17, 168.29 52.50 90.68 66
48 07/25/2015 01:12:34 -72.07, -27.11 127.42 07/25/2015 01:13:40 -72.10, -24.27 127.57 97.18 66
